Location: Boda
(47.1872°N, 9.5454°E)
Time: 09:53:17
(UTC+00:00)

Meteor 2-20 Rocket - Pass Details

Date: 14 May 2021
Orbit: 940 x 960 km, 82.5° (Epoch: 16 June)

Event Time Altitude Azimuth Distance (km) Brightness Sun altitude
Exits shadow 00:33:02 41° 177° (S) 1,360 4.8 -22.1°
Maximum altitude 00:35:21 80° 97° (E) 981 4.4 -21.9°
Drops below altitude 10° 00:41:33 10° 11° (NNE) 2,702 7.9 -21.6°
Sets 00:44:03 0° 11° (N) 3,651 9.0 -21.4°
